{"data":{"norad_id":45158,"intl_designator":"2020-008AD","name":"ONEWEB-0054","alt_names":[],"object_type":"PAYLOAD","status":"ACTIVE","operator":null,"country":"UK","launch_date":"2020-02-06","launch_site_code":"TYMSC","launch_vehicle":null,"mission":null,"orbit_class":"UNKNOWN","rcs_meters":null,"size_class":null,"mass_kg":null,"dimensions":null,"purposes":["comms"],"wikipedia_slug":null,"has_3d_model":false,"image_url":null,"decayed_at":null,"tle_current":{"epoch":"2026-09-20T03:33:07.962048Z","epoch_age_seconds":44858,"freshness":"FRESH","line1":"1 45158U 20008AD  26263.14800882  .00000467  00000+0  13012-2 0  9998","line2":"2 45158  87.8900  17.3656 0001719 102.6779 257.4540 13.10376852320463","mean_motion":13.10376852,"eccentricity":0.0001719,"inclination_deg":87.89,"raan_deg":17.3656,"arg_perigee_deg":102.6779,"mean_anomaly_deg":257.454,"bstar":0.0013012,"rev_number":32046,"period_min":109.89205111508,"perigee_km":1220.3951372034,"apogee_km":1223.0079616967,"semimajor_km":7599.8385494501,"source":"CELESTRAK","updated_at":"2026-09-20T09:00:44.550287Z"}}}